This is the latest recevied weather packets stored in our database for station/object IN3XSV-13. If no packets are shown the sender has not sent any weather packets the latest 10 day(s).
| Time | Temp. | Humidity | Pressure | Rain* | Wind** | Luminosity | Snow |
|---|---|---|---|---|---|---|---|
| 1788068860 | 22.22° C | 73% | 1011.6 hPa | 0 mm | - | - | - |
| 1788068560 | 21.67° C | 75% | 1011.6 hPa | 0 mm | - | - | - |
| 1788068260 | 20.56° C | 77% | 1011.4 hPa | 0 mm | - | - | - |
| 1788067960 | 20° C | 79% | 1011.5 hPa | 0 mm | - | - | - |
| 1788067660 | 19.44° C | 80% | 1011.4 hPa | 0 mm | - | - | - |
| 1788067360 | 18.33° C | 83% | 1011.5 hPa | 0 mm | - | - | - |
| 1788067060 | 17.22° C | 84% | 1011.3 hPa | 0 mm | - | - | - |
| 1788066760 | 16.67° C | 84% | 1011.4 hPa | 0 mm | - | - | - |
| 1788066460 | 16.11° C | 85% | 1011.2 hPa | 0 mm | - | - | - |
| 1788066160 | 16.11° C | 85% | 1011.2 hPa | 0 mm | - | - | - |
| 1788065860 | 16.11° C | 85% | 1011.1 hPa | 0 mm | - | - | - |
| 1788065560 | 16.11° C | 85% | 1011.2 hPa | 0 mm | - | - | - |
| 1788065260 | 16.11° C | 84% | 1011.3 hPa | 0 mm | - | - | - |
| 1788064960 | 16.11° C | 84% | 1011.2 hPa | 0 mm | - | - | - |
| 1788064660 | 16.11° C | 84% | 1011.3 hPa | 0 mm | - | - | - |
| 1788064360 | 16.11° C | 84% | 1011.2 hPa | 0 mm | - | - | - |
| 1788064060 | 16.11° C | 83% | 1011.2 hPa | 0 mm | - | - | - |
| 1788063760 | 16.11° C | 83% | 1011.1 hPa | 0 mm | - | - | - |
| 1788063460 | 16.11° C | 83% | 1011.1 hPa | 0 mm | - | - | - |
| 1788063160 | 16.67° C | 83% | 1011.1 hPa | 0 mm | - | - | - |
| 1788062860 | 16.67° C | 82% | 1011.2 hPa | 0 mm | - | - | - |
| 1788062560 | 16.67° C | 82% | 1011.1 hPa | 0 mm | - | - | - |
| 1788062260 | 16.67° C | 82% | 1011.1 hPa | 0 mm | - | - | - |
| 1788061960 | 16.67° C | 82% | 1011 hPa | 0 mm | - | - | - |
| 1788061660 | 16.67° C | 82% | 1011.1 hPa | 0 mm | - | - | - |
* Rain latest hour (hover to see other rain measurements)
** Current wind speed in m/s (hover to see current wind gust speed)